Location: *
(38.3914°N, 75.0697°W)
Time: 07:45:46
(UTC+00:00)

Gbstr 26 Del rocket - Pass Details

Date: 17 February 2020
Orbit: 493 x 1264 km, 51.8° (Epoch: 03 April)

Event Time Altitude Azimuth Distance (km) Brightness Sun altitude
Exits shadow 09:54:31 42° 277° (W) 1,583 4.6 -23.1°
Maximum altitude 09:56:46 56° 226° (SW) 1,375 4.5 -22.6°
Drops below altitude 10° 10:04:34 10° 151° (SSE) 3,223 7.0 -21.1°
Sets 10:07:33 0° 147° (SSE) 4,204 7.8 -20.5°
